COSMOS 2251 DEB, 35606

Orbit data source: Space-Track

COSMOS 2251 DEB, 35606 is space debris in LEO originally from a launch on Wed, 16 Jun 1993 UTC launched from the Plesetsk Missile And Space Complex (PKMTR). The debris from Iridium 33, an American commercial communications satellite, has been tracked extensively since its accidental collision with the defunct Russian satellite Cosmos 2251 in 2009. This event, occurring at high speed in low Earth orbit (LEO), generated thousands of pieces of space debris, significantly increasing the risk of further collisions. The Iridium 33 debris cloud has impacted space traffic management and orbital debris mitigation strategies, making it a subject of ongoing study in space situational awareness.

Loading next visibility...
Identifier
35606, 1993-036AMZ
Orbit
LEO
Country
Flag of CISCIS
Related business
Manufacturer
Unknown
Mission
Spacecraft
Bus & Motor
Unknown
Mass
Unknown
Launch date (UTC)
1993-06-16 (32 years ago)
Launch vehicle
Unknown
Launch site
Plesetsk Missile And Space Complex (PKMTR)
Object type
Payload
Rocket body
Debris
Shape & HBR
Unknown shape, 0.1 m
Radar Cross Section
Small (<0.1 m²)

Expand to show TLE details & history
Last TLE update: 5 days ago

TLE from 5 days ago
0 COSMOS 2251 DEB
1 35606U 93036AMZ 25343.34057980  .00001492  00000-0  14728-2 0  9994
2 35606  73.8107  16.2149 0457732 222.4362 134.0496 13.41205491609945
Epoch: 2025-12-09T08:10Z
TLE epoch observation values (Epoch: 2025-12-09T08:10:26.094Z)
Latitude
-0.00001°
Longitude
175.27951°
Altitude
1,353.178 km
Speed
7.063 km/s
True Right ascension
01h 04m 51s
True Declination
0° 00' 00"
Sunlit
Object was in daylight at epoch
Visualization orbit readout
Latitude
Unknown
Longitude
Unknown
Altitude
Unknown
Speed
Unknown
Apparent Right ascension
Unknown
Apparent Declination
Unknown
Sunlit
N/A
Visualization observer readout
Local Sidereal Time
05:50:54
Azimuth
Unknown
Elevation
Unknown
Doppler factor
Unknown
Orbital elements
Apogee altitude
1,444.948 km
Perigee altitude
760.119 km
Semi-major axis
7,480.671 km
Eccentricity
0.04577
Inclination
73.8107°
RAAN
16.2149°
Arg. of periapsis
222.4362°
True anomaly
137.67269°
Mean anomaly
134.0496°
Eccentric anomaly
135.87551°
Mean motion
3.35454 °/min
Orbital period
107.32 mins
BSTAR
0.0014728
Loading maneuver chart data...
Computing Atmospheric mass density...

Documentation

Showing up to 5 results
|